Overview Statistics Trail Chart Weather Telemetry Raw packets
 

This is the latest recevied weather packets stored in our database for station/object KC9TVS-13. If no packets are shown the sender has not sent any weather packets the latest 10 day(s).

<< 104 105 106 107 108 109 110 >>
Time Temp. Humidity Pressure Rain* Wind** Luminosity Snow
1787787890 29.44° C 77% 1013.6 hPa 0 mm - 28 W/m² -
1787787593 29.44° C 77% 1013.8 hPa 0 mm - 42 W/m² -
1787787291 29.44° C 76% 1013.5 hPa 0 mm - 47 W/m² -
1787786989 29.44° C 76% 1013.5 hPa 0 mm - 58 W/m² -
1787786689 30° C 75% 1013.7 hPa 0 mm - 76 W/m² -
1787786391 30° C 75% 1013.8 hPa 0 mm - 95 W/m² -
1787786088 30.56° C 74% 1013.8 hPa 0 mm - 116 W/m² -
1787785785 30.56° C 78% 1013.8 hPa 0 mm - 155 W/m² -
1787785484 30° C 75% 1013.9 hPa 0 mm - 176 W/m² -
1787785185 30° C 75% 1013.8 hPa 0 mm - 153 W/m² -
1787784886 29.44° C 76% 1013.9 hPa 0 mm - 111 W/m² -
1787784584 29.44° C 76% 1013.9 hPa 0 mm - 63 W/m² -
1787784284 30° C 75% 1013.8 hPa 0 mm - 60 W/m² -
1787783985 30° C 75% 1013.7 hPa 0 mm - 60 W/m² -
1787783684 30° C 75% 1013.7 hPa 0 mm - 62 W/m² -
1787783385 30° C 74% 1013.5 hPa 0 mm - 69 W/m² -
1787783086 30.56° C 73% 1013.7 hPa 0 mm - 74 W/m² -
1787782783 30.56° C 71% 1013.8 hPa 0 mm - 102 W/m² -
1787782482 31.11° C 70% 1013.7 hPa 0 mm - 227 W/m² -
1787782183 31.67° C 68% 1013.7 hPa 0 mm - 388 W/m² -
1787781882 31.11° C 71% 1013.9 hPa 0 mm - 432 W/m² -
1787781583 31.67° C 73% 1013.8 hPa 0 mm - 459 W/m² -
1787781284 31.11° C 73% 1013.7 hPa 0 mm - 482 W/m² -
1787780982 31.11° C 73% 1013.8 hPa 0 mm - 510 W/m² -
1787780682 31.11° C 72% 1014 hPa 0 mm - 543 W/m² -

* Rain latest hour (hover to see other rain measurements)
** Current wind speed in m/s (hover to see current wind gust speed)